Home > Weather > Prague > Past weeks

Flag for Czech Republic Weather for the Past 2 Weeks in Prague, Czech Republic

Now
46 °F

Passing clouds.


Feels Like: 43 °F
Forecast: 45 / 67 °F
Wind: 7 mph from North

Location: Prague Ruzyne Airport

Current Time: May 5, 2016 at 9:01:17 AM

Latest Report: May 5, 2016 at 8:30 AM


Visibility: N/A

Pressure: 30.33 "Hg

Humidity: 76%

Dew Point: 39 °F

Location of PragueLocation

Historic Weather in Prague — Graph

°F

Prague Temperature Yesterday

Maximum temperature yesterday: 48 °F (at 12:00 AM)
Minimum temperature yesterday: 43 °F (at 8:00 PM)
Average temperature yesterday: 45 °F

High & Low Weather Summary for the Past Weeks

 TemperatureHumidityPressure
High64 °F (May 3, 4:30 PM)100% (Apr 29, 6:30 AM)30.36 "Hg (Apr 29, 6:30 AM)
Low28 °F (Apr 25, 5:30 AM)27% (Apr 30, 3:00 PM)29.50 "Hg (Apr 26, 11:00 AM)
Average45 °F65%29.99 "Hg
* Reported Apr 20 7:00 AM — May 5 7:30 AM, Prague, Weather by CustomWeather, © 2016

Note: Actual official high and low records may vary slightly from our data, if they occured in-between our weather recording intervals... More about our weather records

Advertising

Prague Weather History for the Previous 24 Hours

Scroll right to see more
 ConditionsComfort  
Time TempWeatherWind HumidityBarometerVisibility
7:30 AM
Thu, May 5
45 °FScattered clouds.8 mph87%30.33 "HgN/A
7:00 AM43 °FPartly sunny.7 mph93%30.33 "HgN/A
6:30 AM43 °FPassing clouds.5 mph87%30.33 "HgN/A
6:00 AM43 °FPassing clouds.5 mph87%30.30 "HgN/A
5:30 AM43 °FPassing clouds.3 mph87%30.30 "HgN/A
5:00 AM43 °FPassing clouds.3 mph87%30.30 "HgN/A
4:30 AM45 °FPassing clouds.5 mph87%30.30 "HgN/A
4:00 AM43 °FPassing clouds.5 mph87%30.30 "HgN/A
3:30 AM43 °FPassing clouds.5 mph87%30.30 "HgN/A
3:00 AM45 °FPassing clouds.6 mph87%30.33 "HgN/A
2:30 AM45 °FPassing clouds.5 mph87%30.33 "HgN/A
2:00 AM45 °FPassing clouds.3 mph81%30.33 "HgN/A
1:30 AM45 °FOvercast.5 mph87%30.33 "HgN/A
1:00 AM43 °FOvercast.5 mph93%30.33 "HgN/A
12:30 AM45 °FPassing clouds.6 mph87%30.33 "HgN/A
12:00 AM43 °FPassing clouds.7 mph93%30.33 "HgN/A
11:30 PM
Wed, May 4
43 °FPartly cloudy.7 mph93%30.33 "HgN/A
11:00 PM43 °FMostly cloudy.5 mph93%30.33 "HgN/A
10:30 PM43 °FPassing clouds.8 mph93%30.33 "HgN/A
10:00 PM43 °FOvercast.7 mph93%30.33 "HgN/A
9:30 PM43 °FLight rain. Overcast.7 mph93%30.33 "HgN/A
9:00 PM43 °FLight rain. Mostly cloudy.7 mph93%30.33 "HgN/A
8:30 PM43 °FLight rain. Mostly cloudy.9 mph93%30.33 "HgN/A
8:00 PM43 °FLight rain. Cloudy.9 mph87%30.33 "HgN/A
7:30 PM45 °FLight rain. Mostly cloudy.10 mph87%30.30 "HgN/A
7:00 PM45 °FMore clouds than sun.13 mph81%30.30 "HgN/A
6:30 PM45 °FMore clouds than sun.13 mph87%30.30 "HgN/A
6:00 PM45 °FMostly cloudy.14 mph87%30.30 "HgN/A
5:30 PM45 °FMostly cloudy.16 mph87%30.30 "HgN/A
5:00 PM45 °FLight rain. Mostly cloudy.15 mph87%30.30 "HgN/A
4:30 PM45 °FLight rain. Mostly cloudy.15 mph87%30.30 "HgN/A
4:00 PM45 °FLight rain. Mostly cloudy.17 mph87%30.30 "HgN/A
3:30 PM45 °FRain. More clouds than sun.15 mph87%30.30 "HgN/A
3:00 PM45 °FRain. More clouds than sun.16 mph87%30.30 "Hg6 mi
2:30 PM45 °FLight rain. Mostly cloudy.17 mph87%30.30 "HgN/A
2:00 PM45 °FLight rain. Mostly cloudy.15 mph93%30.30 "HgN/A
1:30 PM45 °FLight rain. Mostly cloudy.15 mph87%30.27 "HgN/A
1:00 PM45 °FLight rain. Mostly cloudy.16 mph87%30.27 "HgN/A
12:30 PM46 °FLight rain. Mostly cloudy.15 mph82%30.27 "HgN/A
12:00 PM45 °FLight rain. More clouds than sun.16 mph87%30.27 "HgN/A
11:30 AM45 °FLight rain. More clouds than sun.15 mph87%30.27 "HgN/A
11:00 AM45 °FLight rain. More clouds than sun.14 mph87%30.27 "HgN/A
10:30 AM45 °FLight rain. Mostly cloudy.16 mph87%30.27 "HgN/A
10:00 AM45 °FLight rain. Overcast.16 mph87%30.24 "HgN/A
9:30 AM45 °FLight rain. More clouds than sun.15 mph87%30.24 "HgN/A
9:00 AM46 °FMore clouds than sun.15 mph76%30.24 "HgN/A
Weather by CustomWeather, © 2016

See weather overviewHow to use our weather pages